Temperature
21 21 20 19 19 19 21 22 23 23 23 23 23 23 22 22 21 21 20 21 21 20 20 19 19 20 20 20 20 20 20 20 20 19 19 19 19 19 19 19 18 18 18 18 18 18 18 18 18
21 21 20 19 19 20 21 22 23 23 24 23 23 23 22 21 21 21 20 20 21 21 20 20 20 20 20 20 20 20 20 20 19 19 19 19 19 19 19 18 18 18 18 18 18 18 18 18 17
21 20 20 18 19 20 23 24 23 24 24 23 23 22 22 21 21 21 21 20 20 20 20 20 20 20 20 20 20 20 20 20 19 19 19 19 19 18 18 18 18 18 18 18 18 18 18 17 17
21 20 20 18 21 21 23 24 24 23 24 23 23 22 22 22 22 22 21 20 20 20 20 20 20 20 20 20 20 20 20 19 19 19 19 19 19 18 18 18 18 18 18 18 18 18 17 17 17
21 21 19 19 20 22 23 24 24 23 23 23 23 21 21 21 21 22 21 21 21 20 20 20 20 20 20 20 20 20 19 19 19 19 19 19 18 18 18 18 18 18 18 18 18 17 17 17 17
21 19 18 19 21 23 24 25 25 24 23 23 22 21 21 21 21 21 21 21 21 20 20 20 20 20 20 20 20 19 19 19 19 19 19 19 18 18 18 18 18 18 18 18 17 17 17 17 17
21 18 19 21 21 23 25 26 24 23 22 23 22 20 20 21 21 21 21 20 20 20 20 20 19 19 19 19 19 19 19 19 19 19 19 18 18 18 18 18 18 18 18 17 17 17 17 17 17
22 18 20 20 22 24 25 26 25 24 23 23 23 21 20 21 21 21 20 20 20 20 20 20 19 19 19 19 19 19 19 19 19 19 18 18 18 18 18 18 18 18 17 17 17 17 17 17 17
22 18 19 21 23 24 25 25 25 25 23 23 23 23 23 22 21 20 20 19 19 19 19 19 19 19 19 19 19 19 19 19 18 18 18 18 18 18 18 18 17 17 17 17 17 17 17 17 17
21 19 21 22 23 24 25 25 25 24 22 22 22 22 22 21 20 20 20 19 19 19 19 19 19 19 19 19 19 18 18 18 18 18 18 18 18 18 17 17 17 17 17 17 17 17 17 17 17
21 20 22 23 25 25 24 25 25 23 22 22 23 22 21 21 20 20 20 20 19 19 19 19 19 19 19 19 19 18 18 18 18 18 18 17 17 17 17 17 17 17 17 17 17 17 17 17 17
21 22 24 25 26 26 25 25 24 23 24 25 25 24 22 20 20 20 19 19 19 19 19 19 19 19 19 19 19 19 18 18 18 18 17 17 17 17 17 17 17 17 17 17 17 17 17 17 17
23 23 25 26 26 25 25 24 24 23 24 25 24 22 21 21 20 19 19 19 19 19 19 19 19 19 18 19 19 18 18 18 18 18 17 17 17 17 17 17 17 17 17 16 16 16 16 16 16
24 24 24 25 25 25 24 24 23 23 24 23 22 21 20 20 19 19 18 19 18 19 19 19 18 18 18 18 18 18 18 18 18 18 17 17 17 17 17 17 16 16 16 16 16 16 16 16 16
24 23 23 24 25 25 25 24 23 23 23 22 20 20 19 19 19 19 19 19 19 19 18 18 18 18 18 18 18 18 18 18 18 18 17 17 17 17 16 16 16 16 16 16 16 16 16 16 16
23 22 23 23 24 25 25 23 22 22 21 20 19 19 19 19 19 19 19 19 18 18 18 18 18 18 18 18 18 18 18 18 17 17 17 17 17 16 16 16 16 16 16 16 16 16 16 16 16
21 21 22 23 24 24 23 22 21 21 20 19 19 18 18 18 18 18 18 18 18 18 18 18 18 18 18 18 18 18 18 18 17 17 17 17 16 16 16 16 16 16 15 15 15 15 15 16 16
22 22 22 22 23 23 22 21 21 20 20 19 18 18 18 18 19 18 18 18 18 18 18 18 18 18 18 17 17 17 17 17 17 17 17 16 16 16 16 16 16 15 15 15 15 15 15 15 15
22 22 21 22 23 23 21 21 20 20 19 18 18 18 18 18 18 18 18 18 18 18 17 17 17 17 17 17 17 17 17 17 17 17 17 16 16 16 16 16 15 15 15 15 15 15 15 15 15
22 22 21 22 23 22 21 21 20 19 19 19 18 18 18 18 18 18 18 17 18 18 18 17 17 17 17 17 18 18 18 17 17 17 16 16 16 16 16 15 15 15 15 15 15 15 15 15 15
22 22 22 22 22 21 21 21 20 19 19 19 19 18 18 18 18 18 17 17 17 18 17 17 17 17 17 17 17 17 17 17 17 17 16 16 16 16 15 15 15 15 15 15 15 15 15 15 15
22 23 23 23 21 20 20 19 20 19 18 18 18 18 18 18 18 18 18 17 17 17 17 17 17 17 17 17 17 17 17 17 17 17 16 16 16 15 15 15 15 15 15 15 15 15 15 15 15
23 22 22 21 20 19 19 19 19 18 19 19 18 18 18 18 18 18 18 18 18 17 17 17 17 17 17 17 17 17 17 17 17 17 16 16 16 15 15 15 15 15 15 14 14 14 14 15 15
23 21 20 17 17 19 19 19 19 18 19 19 18 18 18 18 18 18 18 18 18 17 17 17 17 17 17 17 17 17 17 17 17 17 16 16 16 16 15 15 15 15 14 14 14 14 14 14 14
22 20 19 20 18 19 18 18 18 19 19 19 18 19 18 18 18 18 18 18 17 17 17 17 17 17 17 17 17 17 17 17 17 17 17 16 16 16 16 15 15 15 14 14 14 14 14 14 14
21 20 19 20 19 18 18 18 19 20 19 20 19 19 19 18 18 18 18 18 18 18 18 17 17 17 17 17 17 17 17 17 17 17 17 17 16 16 16 15 15 15 14 14 14 14 14 14 14
21 19 19 18 18 18 18 18 18 19 19 19 19 18 18 19 19 19 19 18 18 18 18 18 18 17 17 17 17 17 17 17 17 17 17 17 16 16 16 15 15 15 15 14 14 14 14 14 14
22 19 17 17 18 19 19 19 19 20 20 19 18 18 18 19 19 19 19 19 18 18 18 18 18 18 18 18 17 17 17 17 17 17 17 17 16 16 16 15 15 15 15 15 14 14 14 14 14
21 20 17 16 17 18 19 19 19 19 19 18 18 18 19 19 19 19 19 19 19 18 18 18 18 18 18 18 18 17 17 17 17 17 17 17 16 16 16 16 15 15 15 15 14 14 14 14 14
21 19 17 19 18 16 17 19 20 19 18 18 18 19 19 20 20 20 20 19 19 19 19 19 18 18 18 18 18 17 17 17 17 17 17 17 16 16 16 16 16 15 15 15 15 14 14 14 14
Wind_Speed
5 4 2 1 3 4 3 3 3 2 1 1 3 4 5 4 4 3 2 13 18 17 18 21 21 20 20 20 19 19 18 18 17 17 17 16 15 15 14 14 13 13 13 13 13 13 13 13 13
4 4 2 2 4 2 5 4 4 4 4 3 3 3 3 2 3 6 7 12 19 17 18 19 22 21 20 20 19 18 18 17 17 16 15 15 15 14 13 13 13 13 13 12 12 12 12 12 12
4 2 3 4 2 4 4 3 4 3 4 3 2 2 2 3 6 8 8 16 17 15 17 20 23 21 20 19 19 18 17 17 16 15 15 14 14 13 13 12 12 12 12 12 12 12 12 11 11
3 3 4 4 3 5 5 5 3 6 3 2 3 3 1 1 7 8 15 18 17 14 17 21 23 21 20 19 18 18 17 17 16 15 14 13 13 12 12 12 11 11 11 11 11 11 10 10 9
3 4 4 2 5 5 5 6 6 7 4 4 4 4 0 3 8 15 18 19 18 14 14 20 23 22 20 19 19 18 17 16 15 14 13 13 12 12 12 11 11 10 10 10 10 9 9 8 8
4 4 3 3 6 5 3 5 7 5 3 4 5 4 0 3 11 16 16 15 15 15 13 18 22 21 20 19 18 18 17 16 15 14 13 12 11 11 10 10 10 9 9 9 8 8 7 7 6
4 4 2 4 5 5 2 3 6 6 5 6 7 6 1 5 10 15 14 13 12 12 11 13 18 19 20 19 18 17 16 16 15 14 13 12 11 10 10 9 8 8 8 7 7 6 6 5 5
5 4 1 3 4 5 2 2 3 6 5 5 7 8 6 8 11 12 12 11 11 10 10 10 13 15 15 16 18 17 16 15 14 13 12 11 10 10 9 8 7 7 6 6 5 5 5 5 4
4 4 3 5 5 5 2 0 1 3 5 4 4 5 6 17 16 15 13 10 11 12 9 9 9 11 12 13 16 16 16 15 14 12 12 10 8 7 7 6 6 6 5 4 4 4 4 4 4
4 3 7 6 5 5 5 3 4 4 4 3 2 3 13 20 19 19 19 18 17 16 12 9 9 9 11 12 12 11 12 12 10 9 10 8 7 6 5 5 5 5 4 4 3 3 4 4 3
6 7 6 7 7 6 4 3 4 8 6 8 9 12 19 21 19 19 18 17 17 15 14 11 10 9 9 7 9 8 8 9 8 8 9 8 7 5 4 4 3 3 3 4 4 4 4 4 3
6 8 7 7 5 4 5 4 4 8 8 7 11 18 22 22 21 19 17 15 13 14 14 11 10 9 8 7 7 7 7 6 6 7 8 8 5 4 4 3 2 3 3 3 3 3 3 3 3
6 7 6 8 9 6 4 5 4 4 3 4 12 18 20 19 17 13 11 12 11 13 13 13 11 10 8 6 6 7 6 7 7 7 8 9 6 4 4 3 3 3 3 2 2 2 2 3 3
5 7 8 8 6 2 3 1 1 3 3 9 13 15 16 16 15 12 12 12 12 13 12 12 12 11 8 7 5 6 7 7 7 7 8 9 8 6 5 3 3 2 2 2 2 2 3 2 2
5 7 9 5 3 1 2 3 3 2 7 10 11 12 12 11 13 14 15 13 13 12 11 11 11 10 10 8 7 6 7 8 6 7 9 10 9 8 6 4 3 2 3 4 4 4 4 3 3
4 5 6 8 4 2 2 5 5 3 8 9 10 10 10 9 11 12 12 11 10 11 11 12 13 11 10 8 6 6 7 7 7 8 9 9 10 9 7 4 3 4 4 4 3 2 3 3 3
6 4 6 9 4 1 1 5 4 2 8 9 9 10 9 8 8 9 12 12 11 11 11 12 11 11 10 8 6 6 6 6 7 8 8 9 10 10 8 5 4 5 4 3 2 3 2 2 3
4 5 6 8 6 3 2 5 4 3 7 8 8 7 8 9 9 9 10 10 10 10 10 10 11 10 9 7 5 4 5 4 6 7 8 10 10 10 9 6 5 6 4 3 3 3 3 3 2
4 5 10 11 6 2 3 5 5 1 4 6 6 7 7 6 5 6 7 9 10 10 10 10 10 9 9 7 6 5 5 4 4 5 8 10 10 11 9 6 5 4 3 3 3 3 4 3 2
5 6 9 9 4 1 3 5 2 1 3 5 7 8 7 6 6 7 7 8 9 10 11 11 11 11 10 8 6 4 4 4 3 4 6 9 10 10 8 7 5 4 4 4 3 3 3 2 2
6 6 7 7 4 4 3 6 2 1 1 2 4 6 7 9 9 9 8 9 9 10 11 11 11 10 10 9 6 6 5 4 3 3 3 5 9 9 9 8 6 5 4 4 3 3 4 3 2
7 6 6 4 1 4 3 4 6 2 2 3 4 5 7 7 8 9 9 10 10 10 9 9 9 9 9 10 10 10 7 5 5 4 4 4 7 8 9 9 7 5 4 4 3 2 3 4 2
7 0 2 1 2 2 3 1 8 2 4 5 5 6 7 8 9 9 10 10 9 10 10 9 9 9 9 10 10 10 7 5 4 5 6 4 4 5 8 8 7 5 4 4 4 3 3 3 3
4 5 6 5 5 2 2 1 7 4 6 5 5 6 7 8 8 8 7 7 7 8 9 9 10 10 10 10 10 9 10 9 8 7 6 5 3 3 5 7 7 6 5 4 4 4 4 3 3
4 5 4 5 4 6 2 2 9 7 6 6 6 7 7 8 9 8 8 8 9 10 10 10 11 10 10 10 10 10 10 10 10 9 8 7 4 4 5 6 6 5 5 6 5 4 4 3 4
6 9 7 5 5 6 2 5 8 5 3 4 4 5 6 7 8 9 9 9 10 11 11 11 12 10 10 10 10 9 9 8 7 8 8 8 7 6 6 7 7 7 7 6 5 4 3 3 3
7 6 7 7 3 2 6 7 9 2 2 2 2 4 6 7 8 9 9 9 9 10 10 11 11 10 10 10 9 9 9 9 9 8 8 7 6 6 7 8 7 7 7 7 6 4 4 4 4
5 8 6 6 6 4 6 6 6 6 4 4 3 4 6 7 7 8 8 9 8 9 9 9 10 10 9 9 9 9 9 9 9 9 9 8 8 7 7 8 8 7 7 7 6 4 4 5 4
4 5 5 5 5 6 4 8 7 7 5 5 5 5 6 8 9 9 8 8 8 7 8 9 9 8 8 9 8 8 8 8 8 9 9 9 8 8 8 9 8 8 8 7 7 6 6 6 5
5 7 8 6 5 6 5 9 5 4 4 4 4 3 4 7 8 8 8 7 7 8 9 9 9 9 9 9 8 7 7 8 9 10 9 8 8 8 9 8 9 9 9 9 9 8 8 8 7
Wind_Direction
197 161 130 102 59 45 289 257 209 196 216 221 148 144 151 164 182 205 117 143 140 146 154 153 150 144 140 136 133 130 129 128 127 126 127 126 125 124 123 121 118 115 112 110 109 108 107 107 108
136 143 113 71 79 23 285 247 212 203 178 144 113 116 123 169 118 122 134 146 143 146 151 153 152 148 144 141 137 135 133 132 131 130 130 129 127 126 125 122 118 116 114 113 111 109 108 108 109
146 148 95 76 117 199 251 239 208 161 155 154 134 98 146 175 148 151 155 145 142 146 150 156 154 151 148 145 141 139 138 136 135 134 134 132 130 128 125 123 120 117 116 115 113 111 109 109 110
123 66 62 71 251 236 232 235 181 150 180 167 139 130 122 99 153 154 145 146 145 148 152 159 156 153 151 148 146 144 143 141 139 138 136 134 133 129 126 124 121 117 117 115 113 112 110 109 109
72 81 55 350 270 258 240 219 176 173 184 165 152 155 105 17 123 139 147 150 149 149 153 160 157 156 154 153 151 149 147 144 143 142 140 137 134 133 129 126 123 119 117 115 114 112 107 105 105
61 68 70 294 281 276 261 188 160 174 165 153 152 148 233 108 136 147 149 151 151 152 154 159 159 158 157 156 154 153 151 148 148 147 145 142 139 136 133 128 125 123 119 116 114 110 103 98 99
111 103 186 253 278 287 255 153 160 165 175 183 160 145 193 156 155 148 146 144 147 151 152 155 159 160 160 159 158 157 154 153 152 151 149 147 144 141 139 135 131 127 124 120 116 108 98 88 86
132 108 261 262 257 269 237 121 172 164 185 152 145 162 196 176 150 139 136 138 145 152 154 150 153 156 158 161 161 161 158 158 156 156 154 153 151 149 145 141 141 136 131 126 116 103 91 79 77
111 80 247 237 231 261 259 167 209 148 134 151 183 191 176 146 145 142 144 146 155 160 158 152 149 148 151 157 165 164 162 163 162 161 160 153 145 144 144 147 149 146 140 130 116 102 91 79 74
118 173 234 224 216 242 265 242 199 153 161 184 165 120 137 149 157 161 165 166 168 169 167 159 153 150 151 161 160 157 158 160 157 156 152 141 140 144 145 154 154 147 136 122 105 91 77 77 73
175 211 246 253 238 238 245 237 183 157 203 209 193 163 154 161 167 172 174 173 173 169 168 165 158 153 155 152 149 147 147 149 151 152 148 142 137 130 122 116 109 97 97 76 67 63 59 72 84
206 248 246 270 261 249 228 203 188 190 221 214 179 159 160 171 177 178 175 173 167 168 171 165 161 155 155 150 150 148 147 151 154 157 154 146 135 126 120 112 103 89 87 84 66 53 48 62 75
230 265 260 257 278 251 219 204 200 233 254 133 144 154 166 174 177 173 171 169 168 174 175 169 165 162 158 150 155 157 157 160 161 160 161 157 147 141 132 119 116 111 106 99 74 63 59 55 55
258 272 284 286 282 245 177 236 163 251 133 127 142 159 168 171 169 168 174 176 179 181 179 172 170 167 160 158 156 157 161 160 159 162 165 162 155 148 139 126 121 120 119 110 99 87 82 65 63
300 311 321 319 325 311 110 322 255 206 134 139 152 160 165 171 171 177 180 181 184 182 176 175 175 167 163 163 164 162 162 158 160 164 165 163 159 153 144 133 129 129 123 107 91 77 73 69 64
355 10 334 308 336 340 122 268 280 157 141 147 156 164 170 179 183 182 177 178 181 178 179 180 180 172 167 167 165 160 160 157 160 162 161 161 160 152 141 136 136 136 126 108 96 74 69 61 70
24 354 308 308 321 349 152 256 284 154 149 157 166 170 177 180 187 185 181 178 179 180 180 181 176 172 170 166 158 155 152 149 154 156 154 156 156 152 142 137 132 130 114 99 101 70 80 77 70
299 310 298 294 302 333 292 266 286 185 167 170 169 173 182 185 188 181 179 175 173 175 176 178 173 170 164 154 137 130 131 138 144 152 153 152 150 149 139 131 128 127 110 93 85 86 68 70 69
248 271 283 282 296 309 276 276 292 218 168 171 176 184 193 189 165 159 171 170 167 171 177 179 173 168 159 155 154 154 156 149 145 151 151 150 149 148 140 133 126 127 120 121 118 102 82 60 51
235 276 284 297 351 43 294 285 297 196 204 196 191 193 194 178 166 169 170 173 173 176 177 179 175 170 166 165 158 148 135 133 134 133 139 150 150 150 149 143 140 136 120 111 111 113 106 68 50
256 237 263 277 329 18 349 314 293 282 244 202 199 195 193 190 182 178 178 178 177 182 181 181 173 168 162 151 133 119 99 95 108 123 140 152 155 155 152 151 144 142 136 139 136 132 128 120 59
267 246 239 255 326 306 18 293 291 268 277 234 218 201 199 193 182 182 181 180 184 185 176 170 167 167 159 152 154 155 157 160 168 159 156 146 155 158 158 155 150 148 143 144 150 139 135 134 129
224 41 91 77 141 332 1 231 289 311 266 250 232 213 199 190 183 185 187 185 182 178 174 171 166 168 163 163 164 162 157 148 137 135 143 146 150 160 162 160 154 152 151 152 147 138 136 136 144
167 71 53 52 69 321 288 203 282 251 235 247 230 215 200 185 176 175 178 167 163 167 170 168 170 173 167 166 167 168 162 152 148 152 159 159 154 159 168 165 162 162 160 162 161 154 147 138 134
127 97 21 350 357 259 267 235 253 252 232 221 221 215 197 183 174 170 170 169 168 170 171 170 172 174 171 170 173 176 171 165 167 168 172 169 170 182 188 174 170 171 175 172 161 158 160 156 151
180 149 165 210 235 276 301 247 256 252 238 220 209 196 180 178 175 178 178 173 173 172 171 170 173 173 173 175 179 177 174 173 176 174 174 182 189 190 183 181 181 181 177 173 166 164 172 167 167
151 181 166 142 161 263 279 282 299 245 203 196 181 170 186 185 179 180 176 171 172 171 170 171 170 171 176 178 176 180 179 178 180 179 179 186 189 187 181 184 184 185 180 175 169 177 179 170 176
154 146 112 132 158 241 284 278 258 259 226 186 186 192 192 180 174 177 178 176 175 175 169 166 169 174 174 175 180 187 186 186 182 179 185 188 188 184 179 187 188 187 183 178 176 180 181 176 184
126 122 122 129 156 167 246 269 232 228 217 202 206 203 185 179 178 178 180 179 172 166 165 169 174 171 173 180 184 181 185 187 182 186 192 190 184 183 187 190 189 189 188 183 184 192 185 187 193
182 174 153 160 207 180 190 262 276 218 213 198 206 203 181 173 173 173 170 166 167 171 173 179 181 183 184 181 180 187 187 184 188 194 196 191 188 190 193 190 190 194 193 189 192 199 195 196 201
Height
1503 1503 1503 1505 1507 1514 1513 1504 1498 1496 1495 1493 1493 1494 1495 1498 1502 1505 1499 1499 1504 1509 1514 1518 1522 1525 1527 1529 1531 1533 1534 1536 1537 1539 1540 1542 1543 1544 1545 1546 1547 1548 1549 1549 1550 1551 1552 1552 1553
1502 1503 1505 1505 1512 1521 1513 1499 1497 1494 1493 1493 1493 1494 1495 1495 1495 1496 1496 1500 1505 1509 1514 1518 1522 1525 1528 1530 1532 1534 1535 1537 1539 1540 1542 1543 1545 1546 1547 1548 1549 1550 1550 1551 1552 1553 1553 1554 1555
1502 1503 1505 1507 1513 1517 1507 1495 1493 1492 1492 1493 1494 1494 1494 1494 1494 1494 1496 1500 1506 1510 1514 1518 1522 1525 1528 1530 1532 1534 1536 1538 1540 1542 1543 1545 1546 1548 1549 1550 1551 1551 1552 1553 1554 1555 1555 1556 1557
1503 1504 1506 1511 1511 1504 1497 1491 1490 1492 1492 1492 1493 1494 1494 1495 1494 1494 1496 1501 1506 1511 1515 1519 1523 1526 1529 1531 1534 1535 1537 1539 1541 1543 1545 1546 1548 1549 1550 1552 1553 1553 1554 1555 1556 1556 1557 1558 1559
1502 1503 1509 1515 1509 1498 1490 1487 1489 1490 1491 1491 1492 1493 1493 1494 1494 1495 1498 1501 1506 1511 1516 1519 1523 1526 1529 1532 1534 1537 1539 1541 1542 1544 1546 1548 1549 1551 1552 1553 1554 1555 1556 1557 1557 1558 1559 1560 1561
1503 1504 1516 1518 1506 1493 1487 1485 1487 1488 1489 1490 1491 1493 1493 1494 1495 1497 1500 1503 1508 1511 1516 1520 1524 1527 1530 1533 1535 1537 1539 1542 1544 1546 1547 1549 1551 1552 1553 1555 1556 1556 1557 1558 1559 1560 1561 1562 1562
1503 1508 1513 1510 1505 1495 1486 1485 1486 1487 1488 1489 1489 1491 1492 1493 1495 1498 1501 1505 1509 1513 1516 1520 1524 1527 1531 1534 1536 1538 1540 1543 1545 1547 1548 1550 1552 1553 1555 1556 1557 1558 1559 1560 1560 1561 1562 1563 1564
1501 1506 1509 1509 1503 1494 1485 1484 1485 1486 1487 1488 1489 1489 1490 1491 1495 1498 1502 1506 1510 1514 1516 1520 1524 1527 1531 1534 1537 1539 1541 1543 1546 1548 1549 1551 1553 1554 1556 1557 1558 1559 1560 1561 1562 1563 1563 1564 1565
1501 1509 1513 1505 1498 1491 1484 1484 1485 1485 1485 1486 1487 1487 1488 1490 1493 1498 1501 1505 1509 1513 1516 1520 1524 1527 1531 1534 1537 1540 1542 1544 1546 1548 1550 1552 1554 1555 1557 1558 1559 1560 1561 1562 1563 1563 1564 1565 1566
1500 1509 1502 1492 1488 1485 1483 1483 1483 1484 1484 1485 1485 1486 1486 1488 1491 1494 1497 1501 1505 1510 1515 1520 1523 1527 1531 1534 1537 1540 1542 1545 1547 1549 1551 1553 1554 1556 1557 1559 1560 1561 1562 1563 1563 1564 1565 1565 1566
1497 1499 1490 1485 1483 1483 1481 1481 1481 1482 1483 1480 1479 1481 1484 1486 1490 1492 1495 1499 1503 1508 1513 1518 1522 1527 1530 1534 1537 1540 1542 1545 1547 1549 1551 1553 1555 1557 1558 1559 1560 1561 1562 1563 1564 1564 1565 1566 1567
1494 1489 1487 1482 1480 1480 1479 1478 1479 1478 1477 1476 1476 1477 1480 1484 1487 1491 1494 1499 1503 1508 1512 1517 1522 1526 1530 1533 1536 1539 1542 1545 1547 1550 1552 1554 1555 1557 1558 1560 1561 1562 1562 1563 1564 1564 1565 1566 1567
1491 1487 1483 1480 1477 1476 1475 1475 1476 1475 1475 1474 1475 1477 1479 1481 1486 1491 1496 1500 1504 1508 1512 1516 1520 1525 1529 1533 1536 1539 1542 1545 1547 1550 1552 1554 1556 1557 1558 1560 1561 1562 1563 1563 1564 1565 1566 1566 1567
1487 1484 1480 1477 1474 1473 1474 1474 1475 1473 1474 1474 1475 1477 1479 1481 1485 1491 1495 1499 1502 1506 1510 1514 1519 1523 1528 1532 1536 1539 1542 1545 1547 1550 1552 1554 1556 1557 1558 1560 1561 1562 1562 1563 1564 1565 1566 1566 1567
1485 1484 1479 1475 1473 1473 1474 1477 1473 1472 1472 1473 1475 1477 1480 1482 1485 1488 1492 1497 1501 1505 1510 1513 1518 1522 1527 1532 1535 1539 1542 1545 1547 1550 1552 1554 1555 1557 1558 1560 1561 1561 1562 1563 1564 1565 1565 1566 1567
1486 1489 1491 1479 1474 1473 1478 1484 1473 1471 1471 1473 1476 1478 1480 1482 1484 1488 1491 1495 1500 1504 1508 1512 1517 1521 1526 1530 1534 1538 1541 1544 1547 1550 1552 1554 1555 1557 1558 1559 1560 1561 1562 1563 1564 1565 1565 1566 1567
1496 1501 1496 1485 1475 1475 1478 1481 1473 1472 1471 1473 1475 1476 1479 1481 1484 1487 1490 1494 1497 1501 1506 1510 1515 1519 1524 1529 1533 1537 1541 1544 1547 1549 1551 1553 1555 1556 1558 1559 1560 1561 1562 1563 1563 1564 1565 1566 1567
1502 1500 1496 1491 1478 1476 1479 1478 1473 1472 1472 1472 1475 1477 1479 1480 1481 1485 1489 1492 1496 1500 1504 1509 1513 1518 1522 1527 1532 1536 1539 1543 1546 1548 1551 1553 1554 1556 1557 1558 1559 1560 1561 1562 1563 1564 1565 1566 1567
1493 1496 1497 1486 1477 1478 1480 1478 1474 1473 1473 1474 1475 1476 1478 1479 1482 1485 1488 1491 1494 1499 1502 1507 1511 1516 1520 1525 1529 1534 1537 1541 1544 1547 1550 1552 1553 1555 1556 1557 1559 1560 1561 1562 1563 1564 1565 1566 1567
1491 1496 1493 1482 1475 1478 1480 1478 1474 1473 1473 1473 1474 1475 1477 1479 1482 1484 1486 1489 1492 1496 1500 1504 1509 1514 1519 1524 1528 1533 1537 1540 1544 1546 1549 1551 1553 1554 1555 1557 1558 1559 1560 1561 1562 1563 1564 1565 1566
1488 1492 1489 1486 1479 1479 1482 1483 1477 1474 1473 1473 1474 1474 1475 1477 1479 1482 1484 1487 1491 1494 1497 1501 1506 1512 1517 1522 1527 1532 1536 1539 1542 1545 1548 1550 1552 1554 1555 1556 1557 1558 1560 1561 1562 1563 1564 1565 1566
1489 1479 1479 1481 1489 1494 1490 1500 1482 1476 1474 1473 1473 1473 1473 1475 1477 1480 1482 1485 1488 1491 1496 1500 1505 1511 1516 1521 1525 1530 1534 1537 1540 1544 1547 1549 1551 1553 1554 1556 1557 1558 1559 1560 1561 1563 1564 1565 1566
1478 1474 1478 1482 1489 1496 1494 1499 1489 1478 1475 1471 1470 1470 1471 1473 1475 1478 1480 1483 1486 1490 1495 1499 1504 1509 1514 1519 1524 1529 1533 1537 1540 1543 1546 1548 1550 1552 1553 1555 1556 1557 1558 1560 1561 1562 1563 1564 1565
1470 1478 1484 1492 1498 1506 1497 1500 1494 1480 1472 1468 1467 1468 1469 1471 1474 1476 1479 1482 1486 1489 1494 1498 1503 1507 1512 1517 1522 1527 1531 1535 1538 1542 1544 1547 1549 1550 1552 1554 1555 1556 1557 1559 1560 1561 1562 1563 1564
1472 1489 1508 1508 1515 1510 1497 1499 1491 1469 1465 1464 1464 1465 1467 1469 1472 1475 1478 1481 1484 1488 1492 1496 1501 1506 1510 1515 1520 1525 1529 1533 1537 1540 1543 1546 1547 1549 1551 1552 1554 1555 1556 1557 1559 1560 1561 1562 1563
1474 1483 1505 1514 1516 1508 1497 1497 1478 1463 1462 1461 1462 1463 1465 1467 1469 1472 1475 1479 1483 1487 1491 1495 1499 1504 1509 1513 1518 1523 1527 1531 1535 1539 1542 1544 1546 1548 1550 1551 1552 1554 1555 1556 1557 1558 1559 1560 1561
1473 1480 1479 1498 1504 1508 1501 1489 1472 1460 1460 1461 1461 1462 1463 1465 1467 1471 1475 1478 1481 1485 1489 1494 1498 1502 1507 1512 1517 1521 1525 1529 1533 1536 1539 1542 1544 1546 1548 1550 1551 1552 1553 1554 1556 1557 1558 1558 1560
1461 1471 1487 1498 1509 1511 1499 1492 1482 1463 1460 1460 1460 1460 1462 1464 1467 1470 1474 1477 1480 1484 1488 1493 1497 1501 1506 1511 1515 1519 1523 1527 1530 1534 1537 1539 1542 1544 1546 1548 1549 1550 1552 1553 1554 1555 1556 1556 1557
1466 1472 1481 1493 1495 1506 1507 1493 1462 1458 1456 1457 1458 1458 1459 1462 1465 1469 1472 1476 1480 1484 1488 1492 1496 1501 1505 1509 1513 1516 1520 1524 1527 1530 1534 1537 1539 1541 1544 1546 1547 1548 1549 1550 1551 1552 1553 1554 1555
1458 1465 1476 1487 1492 1495 1499 1487 1453 1453 1454 1454 1455 1456 1458 1460 1464 1467 1471 1475 1479 1483 1487 1490 1494 1499 1503 1507 1510 1514 1517 1520 1523 1526 1530 1534 1536 1538 1541 1543 1544 1545 1547 1548 1549 1550 1551 1551 1552